This is the latest recevied weather packets stored in our database for station/object OE-11213. If no packets are shown the sender has not sent any weather packets the latest 10 day(s).
| Time | Temp. | Humidity | Pressure | Rain* | Wind** | Luminosity | Snow |
|---|---|---|---|---|---|---|---|
| 1787763930 | 27.78° C | 54% | 1013.7 hPa | 0 mm | - | 80 W/m² | - |
| 1787763329 | 27.78° C | 52% | 1013.6 hPa | 0 mm | - | 109 W/m² | - |
| 1787762503 | 27.78° C | 52% | 1013.6 hPa | 0 mm | - | 94 W/m² | - |
| 1787762130 | 28.33° C | 50% | 1013.5 hPa | 0 mm | - | 80 W/m² | - |
| 1787761530 | 28.33° C | 52% | 1013.5 hPa | 0 mm | - | 189 W/m² | - |
| 1787760703 | 28.33° C | 49% | 1013.4 hPa | 0 mm | - | 254 W/m² | - |
| 1787760330 | 28.33° C | 50% | 1013.5 hPa | 0 mm | - | 276 W/m² | - |
| 1787759730 | 28.33° C | 49% | 1013.6 hPa | 0 mm | - | 312 W/m² | - |
| 1787758903 | 28.33° C | 50% | 1013.6 hPa | 0 mm | - | 370 W/m² | - |
| 1787758529 | 28.33° C | 51% | 1013.6 hPa | 0 mm | - | 305 W/m² | - |
| 1787757930 | 28.33° C | 50% | 1013.6 hPa | 0 mm | - | 239 W/m² | - |
| 1787757103 | 28.89° C | 52% | 1013.5 hPa | 0 mm | - | 392 W/m² | - |
| 1787756730 | 28.89° C | 50% | 1013.6 hPa | 0 mm | - | 457 W/m² | - |
| 1787756130 | 28.89° C | 45% | 1013.7 hPa | 0 mm | - | 486 W/m² | - |
| 1787755304 | 28.89° C | 48% | 1013.7 hPa | 0 mm | - | 508 W/m² | - |
| 1787754930 | 28.89° C | 49% | 1013.7 hPa | 0 mm | - | 522 W/m² | - |
| 1787754330 | 28.89° C | 50% | 1013.7 hPa | 0 mm | - | 558 W/m² | - |
| 1787753503 | 28.89° C | 50% | 1014 hPa | 0 mm | - | 580 W/m² | - |
| 1787753129 | 28.89° C | 50% | 1014.1 hPa | 0 mm | - | 602 W/m² | - |
| 1787752530 | 28.33° C | 49% | 1014.2 hPa | 0 mm | - | 624 W/m² | - |
| 1787751703 | 28.33° C | 48% | 1014.2 hPa | 0 mm | - | 645 W/m² | - |
| 1787751330 | 28.33° C | 49% | 1014.1 hPa | 0 mm | - | 645 W/m² | - |
| 1787749903 | 27.78° C | 46% | 1014.5 hPa | 0 mm | - | 696 W/m² | - |
| 1787749530 | 27.22° C | 46% | 1014.6 hPa | 0 mm | - | 711 W/m² | - |
| 1787748930 | 27.22° C | 47% | 1014.7 hPa | 0 mm | - | 725 W/m² | - |
* Rain latest hour (hover to see other rain measurements)
** Current wind speed in m/s (hover to see current wind gust speed)